#datetime,building,power
2022-02-15T00:00:00,mnr,9.79
2022-02-15T00:01:00,mnr,9.88
2022-02-15T00:02:00,mnr,9.75
2022-02-15T00:03:00,mnr,9.73
2022-02-15T00:04:00,mnr,9.73
2022-02-15T00:05:00,mnr,10.19
2022-02-15T00:06:00,mnr,9.71
2022-02-15T00:07:00,mnr,9.62
2022-02-15T00:08:00,mnr,9.68
2022-02-15T00:09:00,mnr,9.25
2022-02-15T00:10:00,mnr,9.20
2022-02-15T00:11:00,mnr,9.01
2022-02-15T00:12:00,mnr,9.29
2022-02-15T00:13:00,mnr,8.84
2022-02-15T00:14:00,mnr,8.90
2022-02-15T00:15:00,mnr,8.79
2022-02-15T00:16:00,mnr,8.85
2022-02-15T00:17:00,mnr,8.96
2022-02-15T00:18:00,mnr,8.66
2022-02-15T00:19:00,mnr,9.13
2022-02-15T00:20:00,mnr,8.87
2022-02-15T00:21:00,mnr,8.71
2022-02-15T00:22:00,mnr,8.70
2022-02-15T00:23:00,mnr,8.69
2022-02-15T00:24:00,mnr,8.78
2022-02-15T00:25:00,mnr,8.75
2022-02-15T00:26:00,mnr,9.45
2022-02-15T00:27:00,mnr,8.69
2022-02-15T00:28:00,mnr,8.85
2022-02-15T00:29:00,mnr,8.28
2022-02-15T00:30:00,mnr,8.25
2022-02-15T00:31:00,mnr,8.22
2022-02-15T00:32:00,mnr,8.60
2022-02-15T00:33:00,mnr,8.29
2022-02-15T00:34:00,mnr,8.23
2022-02-15T00:35:00,mnr,8.19
2022-02-15T00:36:00,mnr,7.95
2022-02-15T00:37:00,mnr,7.98
2022-02-15T00:38:00,mnr,8.45
2022-02-15T00:39:00,mnr,8.11
2022-02-15T00:40:00,mnr,8.02
2022-02-15T00:41:00,mnr,7.98
2022-02-15T00:42:00,mnr,7.98
2022-02-15T00:43:00,mnr,7.96
2022-02-15T00:44:00,mnr,8.08
2022-02-15T00:45:00,mnr,8.11
2022-02-15T00:46:00,mnr,8.10
2022-02-15T00:47:00,mnr,8.02
2022-02-15T00:48:00,mnr,8.05
2022-02-15T00:49:00,mnr,8.11
2022-02-15T00:50:00,mnr,8.03
2022-02-15T00:51:00,mnr,8.58
2022-02-15T00:52:00,mnr,8.78
2022-02-15T00:53:00,mnr,8.00
2022-02-15T00:54:00,mnr,8.01
2022-02-15T00:55:00,mnr,8.08
2022-02-15T00:56:00,mnr,8.70
2022-02-15T00:57:00,mnr,8.08
2022-02-15T00:58:00,mnr,8.82
2022-02-15T00:59:00,mnr,8.00
2022-02-15T01:00:00,mnr,7.95
2022-02-15T01:01:00,mnr,8.00
2022-02-15T01:02:00,mnr,9.44
2022-02-15T01:03:00,mnr,9.05
2022-02-15T01:04:00,mnr,10.36
2022-02-15T01:05:00,mnr,10.15
2022-02-15T01:06:00,mnr,11.33
2022-02-15T01:07:00,mnr,10.75
2022-02-15T01:08:00,mnr,10.78
2022-02-15T01:09:00,mnr,10.85
2022-02-15T01:10:00,mnr,11.13
2022-02-15T01:11:00,mnr,10.63
2022-02-15T01:12:00,mnr,11.77
2022-02-15T01:13:00,mnr,10.31
2022-02-15T01:14:00,mnr,10.16
2022-02-15T01:15:00,mnr,11.25
2022-02-15T01:16:00,mnr,10.27
2022-02-15T01:17:00,mnr,10.57
2022-02-15T01:18:00,mnr,10.24
2022-02-15T01:19:00,mnr,9.15
2022-02-15T01:20:00,mnr,9.96
2022-02-15T01:21:00,mnr,9.66
2022-02-15T01:22:00,mnr,9.16
2022-02-15T01:23:00,mnr,9.22
2022-02-15T01:24:00,mnr,9.16
2022-02-15T01:25:00,mnr,9.73
2022-02-15T01:26:00,mnr,9.20
2022-02-15T01:27:00,mnr,9.72
2022-02-15T01:28:00,mnr,9.32
2022-02-15T01:29:00,mnr,9.26
2022-02-15T01:30:00,mnr,9.27
2022-02-15T01:31:00,mnr,10.14
2022-02-15T01:32:00,mnr,9.80
2022-02-15T01:33:00,mnr,10.28
2022-02-15T01:34:00,mnr,9.77
2022-02-15T01:35:00,mnr,9.82
2022-02-15T01:36:00,mnr,9.74
2022-02-15T01:37:00,mnr,9.71
2022-02-15T01:38:00,mnr,10.11
2022-02-15T01:39:00,mnr,10.41
2022-02-15T01:40:00,mnr,10.50
2022-02-15T01:41:00,mnr,9.82
2022-02-15T01:42:00,mnr,9.62
2022-02-15T01:43:00,mnr,9.36
2022-02-15T01:44:00,mnr,9.80
2022-02-15T01:45:00,mnr,10.02
2022-02-15T01:46:00,mnr,9.49
2022-02-15T01:47:00,mnr,9.99
2022-02-15T01:48:00,mnr,9.59
2022-02-15T01:49:00,mnr,10.18
2022-02-15T01:50:00,mnr,9.77
2022-02-15T01:51:00,mnr,9.59
2022-02-15T01:52:00,mnr,9.49
2022-02-15T01:53:00,mnr,9.44
2022-02-15T01:54:00,mnr,9.41
2022-02-15T01:55:00,mnr,9.42
2022-02-15T01:56:00,mnr,9.38
2022-02-15T01:57:00,mnr,9.57
2022-02-15T01:58:00,mnr,8.68
2022-02-15T01:59:00,mnr,9.05
2022-02-15T02:00:00,mnr,9.05
2022-02-15T02:01:00,mnr,8.62
2022-02-15T02:02:00,mnr,9.09
2022-02-15T02:03:00,mnr,9.86
2022-02-15T02:04:00,mnr,9.59
2022-02-15T02:05:00,mnr,10.08
2022-02-15T02:06:00,mnr,10.09
2022-02-15T02:07:00,mnr,10.70
2022-02-15T02:08:00,mnr,10.07
2022-02-15T02:09:00,mnr,10.20
2022-02-15T02:10:00,mnr,10.45
2022-02-15T02:11:00,mnr,9.83
2022-02-15T02:12:00,mnr,11.24
2022-02-15T02:13:00,mnr,11.73
2022-02-15T02:14:00,mnr,12.52
2022-02-15T02:15:00,mnr,11.30
2022-02-15T02:16:00,mnr,12.35
2022-02-15T02:17:00,mnr,10.30
2022-02-15T02:18:00,mnr,10.91
2022-02-15T02:19:00,mnr,10.77
2022-02-15T02:20:00,mnr,10.18
2022-02-15T02:21:00,mnr,9.86
2022-02-15T02:22:00,mnr,9.79
2022-02-15T02:23:00,mnr,9.78
2022-02-15T02:24:00,mnr,10.26
2022-02-15T02:25:00,mnr,9.77
2022-02-15T02:26:00,mnr,9.70
2022-02-15T02:27:00,mnr,9.67
2022-02-15T02:28:00,mnr,9.74
2022-02-15T02:29:00,mnr,9.67
2022-02-15T02:30:00,mnr,9.57
2022-02-15T02:31:00,mnr,9.09
2022-02-15T02:32:00,mnr,9.08
2022-02-15T02:33:00,mnr,8.98
2022-02-15T02:34:00,mnr,8.77
2022-02-15T02:35:00,mnr,8.79
2022-02-15T02:36:00,mnr,8.74
2022-02-15T02:37:00,mnr,9.24
2022-02-15T02:38:00,mnr,8.75
2022-02-15T02:39:00,mnr,8.71
2022-02-15T02:40:00,mnr,8.77
2022-02-15T02:41:00,mnr,8.69
2022-02-15T02:42:00,mnr,9.27
2022-02-15T02:43:00,mnr,8.93
2022-02-15T02:44:00,mnr,8.63
2022-02-15T02:45:00,mnr,8.75
2022-02-15T02:46:00,mnr,8.66
2022-02-15T02:47:00,mnr,8.62
2022-02-15T02:48:00,mnr,9.12
2022-02-15T02:49:00,mnr,8.64
2022-02-15T02:50:00,mnr,8.66
2022-02-15T02:51:00,mnr,9.24
2022-02-15T02:52:00,mnr,8.66
2022-02-15T02:53:00,mnr,8.67
2022-02-15T02:54:00,mnr,9.21
2022-02-15T02:55:00,mnr,8.75
2022-02-15T02:56:00,mnr,9.35
2022-02-15T02:57:00,mnr,8.62
2022-02-15T02:58:00,mnr,8.77
2022-02-15T02:59:00,mnr,8.74
2022-02-15T03:00:00,mnr,9.13
2022-02-15T03:01:00,mnr,8.74
2022-02-15T03:02:00,mnr,9.40
2022-02-15T03:03:00,mnr,8.78
2022-02-15T03:04:00,mnr,8.33
2022-02-15T03:05:00,mnr,8.30
2022-02-15T03:06:00,mnr,8.28
2022-02-15T03:07:00,mnr,8.36
2022-02-15T03:08:00,mnr,8.34
2022-02-15T03:09:00,mnr,8.39
2022-02-15T03:10:00,mnr,8.50
2022-02-15T03:11:00,mnr,8.87
2022-02-15T03:12:00,mnr,8.42
2022-02-15T03:13:00,mnr,8.35
2022-02-15T03:14:00,mnr,8.37
2022-02-15T03:15:00,mnr,8.32
2022-02-15T03:16:00,mnr,8.30
2022-02-15T03:17:00,mnr,9.37
2022-02-15T03:18:00,mnr,8.30
2022-02-15T03:19:00,mnr,8.91
2022-02-15T03:20:00,mnr,8.92
2022-02-15T03:21:00,mnr,8.86
2022-02-15T03:22:00,mnr,9.32
2022-02-15T03:23:00,mnr,9.73
2022-02-15T03:24:00,mnr,9.27
2022-02-15T03:25:00,mnr,8.60
2022-02-15T03:26:00,mnr,8.61
2022-02-15T03:27:00,mnr,8.53
2022-02-15T03:28:00,mnr,8.44
2022-02-15T03:29:00,mnr,8.99
2022-02-15T03:30:00,mnr,8.56
2022-02-15T03:31:00,mnr,8.55
2022-02-15T03:32:00,mnr,8.37
2022-02-15T03:33:00,mnr,8.35
2022-02-15T03:34:00,mnr,8.37
2022-02-15T03:35:00,mnr,8.33
2022-02-15T03:36:00,mnr,8.31
2022-02-15T03:37:00,mnr,8.38
2022-02-15T03:38:00,mnr,9.02
2022-02-15T03:39:00,mnr,8.25
2022-02-15T03:40:00,mnr,8.71
2022-02-15T03:41:00,mnr,8.37
2022-02-15T03:42:00,mnr,8.26
2022-02-15T03:43:00,mnr,8.28
2022-02-15T03:44:00,mnr,8.35
2022-02-15T03:45:00,mnr,7.80
2022-02-15T03:46:00,mnr,7.81
2022-02-15T03:47:00,mnr,7.50
2022-02-15T03:48:00,mnr,7.56
2022-02-15T03:49:00,mnr,7.57
2022-02-15T03:50:00,mnr,7.59
2022-02-15T03:51:00,mnr,7.87
2022-02-15T03:52:00,mnr,7.60
2022-02-15T03:53:00,mnr,7.62
2022-02-15T03:54:00,mnr,7.49
2022-02-15T03:55:00,mnr,7.54
2022-02-15T03:56:00,mnr,7.50
2022-02-15T03:57:00,mnr,7.52
2022-02-15T03:58:00,mnr,8.08
2022-02-15T03:59:00,mnr,7.49
2022-02-15T04:00:00,mnr,8.04
2022-02-15T04:01:00,mnr,8.09
2022-02-15T04:02:00,mnr,7.38
2022-02-15T04:03:00,mnr,7.50
2022-02-15T04:04:00,mnr,7.50
2022-02-15T04:05:00,mnr,7.92
2022-02-15T04:06:00,mnr,7.48
2022-02-15T04:07:00,mnr,7.53
2022-02-15T04:08:00,mnr,7.57
2022-02-15T04:09:00,mnr,7.49
2022-02-15T04:10:00,mnr,7.98
2022-02-15T04:11:00,mnr,7.49
2022-02-15T04:12:00,mnr,7.58
2022-02-15T04:13:00,mnr,8.17
2022-02-15T04:14:00,mnr,7.60
2022-02-15T04:15:00,mnr,7.75
2022-02-15T04:16:00,mnr,7.62
2022-02-15T04:17:00,mnr,7.54
2022-02-15T04:18:00,mnr,7.56
2022-02-15T04:19:00,mnr,7.56
2022-02-15T04:20:00,mnr,8.57
2022-02-15T04:21:00,mnr,7.54
2022-02-15T04:22:00,mnr,7.89
2022-02-15T04:23:00,mnr,7.92
2022-02-15T04:24:00,mnr,7.50
2022-02-15T04:25:00,mnr,7.53
2022-02-15T04:26:00,mnr,7.44
2022-02-15T04:27:00,mnr,7.65
2022-02-15T04:28:00,mnr,7.96
2022-02-15T04:29:00,mnr,7.54
2022-02-15T04:30:00,mnr,7.54
2022-02-15T04:31:00,mnr,7.54
2022-02-15T04:32:00,mnr,7.45
2022-02-15T04:33:00,mnr,7.24
2022-02-15T04:34:00,mnr,7.72
2022-02-15T04:35:00,mnr,7.36
2022-02-15T04:36:00,mnr,7.40
2022-02-15T04:37:00,mnr,6.68
2022-02-15T04:38:00,mnr,6.75
2022-02-15T04:39:00,mnr,6.74
2022-02-15T04:40:00,mnr,6.71
2022-02-15T04:41:00,mnr,7.72
2022-02-15T04:42:00,mnr,6.80
2022-02-15T04:43:00,mnr,6.79
2022-02-15T04:44:00,mnr,6.68
2022-02-15T04:45:00,mnr,6.87
2022-02-15T04:46:00,mnr,6.71
2022-02-15T04:47:00,mnr,6.83
2022-02-15T04:48:00,mnr,6.78
2022-02-15T04:49:00,mnr,6.74
2022-02-15T04:50:00,mnr,7.27
2022-02-15T04:51:00,mnr,6.86
2022-02-15T04:52:00,mnr,6.88
2022-02-15T04:53:00,mnr,6.84
2022-02-15T04:54:00,mnr,7.30
2022-02-15T04:55:00,mnr,6.87
2022-02-15T04:56:00,mnr,6.90
2022-02-15T04:57:00,mnr,6.63
2022-02-15T04:58:00,mnr,6.67
2022-02-15T04:59:00,mnr,6.63
2022-02-15T05:00:00,mnr,7.13
2022-02-15T05:01:00,mnr,7.62
2022-02-15T05:02:00,mnr,9.80
2022-02-15T05:03:00,mnr,11.66
2022-02-15T05:04:00,mnr,11.89
2022-02-15T05:05:00,mnr,11.95
2022-02-15T05:06:00,mnr,13.05
2022-02-15T05:07:00,mnr,11.92
2022-02-15T05:08:00,mnr,11.92
2022-02-15T05:09:00,mnr,11.96
2022-02-15T05:10:00,mnr,11.95
2022-02-15T05:11:00,mnr,11.99
2022-02-15T05:12:00,mnr,11.91
2022-02-15T05:13:00,mnr,13.08
2022-02-15T05:14:00,mnr,11.87
2022-02-15T05:15:00,mnr,11.86
2022-02-15T05:16:00,mnr,11.78
2022-02-15T05:17:00,mnr,12.74
2022-02-15T05:18:00,mnr,12.67
2022-02-15T05:19:00,mnr,13.18
2022-02-15T05:20:00,mnr,12.67
2022-02-15T05:21:00,mnr,12.67
2022-02-15T05:22:00,mnr,12.67
2022-02-15T05:23:00,mnr,12.95
2022-02-15T05:24:00,mnr,12.82
2022-02-15T05:25:00,mnr,13.23
2022-02-15T05:26:00,mnr,12.70
2022-02-15T05:27:00,mnr,12.97
2022-02-15T05:28:00,mnr,12.81
2022-02-15T05:29:00,mnr,12.79
2022-02-15T05:30:00,mnr,12.74
2022-02-15T05:31:00,mnr,13.20
2022-02-15T05:32:00,mnr,12.94
2022-02-15T05:33:00,mnr,12.92
2022-02-15T05:34:00,mnr,12.80
2022-02-15T05:35:00,mnr,13.01
2022-02-15T05:36:00,mnr,12.63
2022-02-15T05:37:00,mnr,12.61
2022-02-15T05:38:00,mnr,13.58
2022-02-15T05:39:00,mnr,13.38
2022-02-15T05:40:00,mnr,13.79
2022-02-15T05:41:00,mnr,13.60
2022-02-15T05:42:00,mnr,13.30
2022-02-15T05:43:00,mnr,13.33
2022-02-15T05:44:00,mnr,13.79
2022-02-15T05:45:00,mnr,13.35
2022-02-15T05:46:00,mnr,13.36
2022-02-15T05:47:00,mnr,13.21
2022-02-15T05:48:00,mnr,13.22
2022-02-15T05:49:00,mnr,14.08
2022-02-15T05:50:00,mnr,14.19
2022-02-15T05:51:00,mnr,14.31
2022-02-15T05:52:00,mnr,14.75
2022-02-15T05:53:00,mnr,14.57
2022-02-15T05:54:00,mnr,14.43
2022-02-15T05:55:00,mnr,14.55
2022-02-15T05:56:00,mnr,14.41
2022-02-15T05:57:00,mnr,14.30
2022-02-15T05:58:00,mnr,14.41
2022-02-15T05:59:00,mnr,14.61
2022-02-15T06:00:00,mnr,14.74
2022-02-15T06:01:00,mnr,14.12
2022-02-15T06:02:00,mnr,14.11
2022-02-15T06:03:00,mnr,13.96
2022-02-15T06:04:00,mnr,13.91
2022-02-15T06:05:00,mnr,13.91
2022-02-15T06:06:00,mnr,14.38
2022-02-15T06:07:00,mnr,13.89
2022-02-15T06:08:00,mnr,13.85
2022-02-15T06:09:00,mnr,13.22
2022-02-15T06:10:00,mnr,13.34
2022-02-15T06:11:00,mnr,13.04
2022-02-15T06:12:00,mnr,13.54
2022-02-15T06:13:00,mnr,13.70
2022-02-15T06:14:00,mnr,14.18
2022-02-15T06:15:00,mnr,13.73
2022-02-15T06:16:00,mnr,13.59
2022-02-15T06:17:00,mnr,14.31
2022-02-15T06:18:00,mnr,13.64
2022-02-15T06:19:00,mnr,13.73
2022-02-15T06:20:00,mnr,13.80
2022-02-15T06:21:00,mnr,14.33
2022-02-15T06:22:00,mnr,13.92
2022-02-15T06:23:00,mnr,13.65
2022-02-15T06:24:00,mnr,14.68
2022-02-15T06:25:00,mnr,14.20
2022-02-15T06:26:00,mnr,13.73
2022-02-15T06:27:00,mnr,14.14
2022-02-15T06:28:00,mnr,14.35
2022-02-15T06:29:00,mnr,13.84
2022-02-15T06:30:00,mnr,13.82
2022-02-15T06:31:00,mnr,13.73
2022-02-15T06:32:00,mnr,13.70
2022-02-15T06:33:00,mnr,13.69
2022-02-15T06:34:00,mnr,13.69
2022-02-15T06:35:00,mnr,13.37
2022-02-15T06:36:00,mnr,13.35
2022-02-15T06:37:00,mnr,13.17
2022-02-15T06:38:00,mnr,13.81
2022-02-15T06:39:00,mnr,13.90
2022-02-15T06:40:00,mnr,15.04
2022-02-15T06:41:00,mnr,13.90
2022-02-15T06:42:00,mnr,13.89
2022-02-15T06:43:00,mnr,13.85
2022-02-15T06:44:00,mnr,13.79
2022-02-15T06:45:00,mnr,13.80
2022-02-15T06:46:00,mnr,14.26
2022-02-15T06:47:00,mnr,13.72
2022-02-15T06:48:00,mnr,13.78
2022-02-15T06:49:00,mnr,14.48
2022-02-15T06:50:00,mnr,14.49
2022-02-15T06:51:00,mnr,14.06
2022-02-15T06:52:00,mnr,14.20
2022-02-15T06:53:00,mnr,15.48
2022-02-15T06:54:00,mnr,13.90
2022-02-15T06:55:00,mnr,13.96
2022-02-15T06:56:00,mnr,13.87
2022-02-15T06:57:00,mnr,13.91
2022-02-15T06:58:00,mnr,13.95
2022-02-15T06:59:00,mnr,14.06
2022-02-15T07:00:00,mnr,14.94
2022-02-15T07:01:00,mnr,15.30
2022-02-15T07:02:00,mnr,14.70
2022-02-15T07:03:00,mnr,14.68
2022-02-15T07:04:00,mnr,14.66
2022-02-15T07:05:00,mnr,14.63
2022-02-15T07:06:00,mnr,15.23
2022-02-15T07:07:00,mnr,15.47
2022-02-15T07:08:00,mnr,15.87
2022-02-15T07:09:00,mnr,14.73
2022-02-15T07:10:00,mnr,15.21
2022-02-15T07:11:00,mnr,14.66
2022-02-15T07:12:00,mnr,14.35
2022-02-15T07:13:00,mnr,14.91
2022-02-15T07:14:00,mnr,15.14
2022-02-15T07:15:00,mnr,16.54
2022-02-15T07:16:00,mnr,16.06
2022-02-15T07:17:00,mnr,15.94
2022-02-15T07:18:00,mnr,14.30
2022-02-15T07:19:00,mnr,14.14
2022-02-15T07:20:00,mnr,14.27
2022-02-15T07:21:00,mnr,14.47
2022-02-15T07:22:00,mnr,14.17
2022-02-15T07:23:00,mnr,14.17
2022-02-15T07:24:00,mnr,14.54
2022-02-15T07:25:00,mnr,15.10
2022-02-15T07:26:00,mnr,15.15
2022-02-15T07:27:00,mnr,15.63
2022-02-15T07:28:00,mnr,14.62
2022-02-15T07:29:00,mnr,14.19
2022-02-15T07:30:00,mnr,14.04
2022-02-15T07:31:00,mnr,14.10
2022-02-15T07:32:00,mnr,15.18
2022-02-15T07:33:00,mnr,14.41
2022-02-15T07:34:00,mnr,14.63
2022-02-15T07:35:00,mnr,14.64
2022-02-15T07:36:00,mnr,14.76
2022-02-15T07:37:00,mnr,15.16
2022-02-15T07:38:00,mnr,14.65
2022-02-15T07:39:00,mnr,14.59
2022-02-15T07:40:00,mnr,14.79
2022-02-15T07:41:00,mnr,14.62
2022-02-15T07:42:00,mnr,18.39
2022-02-15T07:43:00,mnr,18.89
2022-02-15T07:44:00,mnr,19.34
2022-02-15T07:45:00,mnr,18.79
2022-02-15T07:46:00,mnr,18.45
2022-02-15T07:47:00,mnr,18.74
2022-02-15T07:48:00,mnr,20.50
2022-02-15T07:49:00,mnr,19.90
2022-02-15T07:50:00,mnr,20.04
2022-02-15T07:51:00,mnr,20.53
2022-02-15T07:52:00,mnr,19.89
2022-02-15T07:53:00,mnr,18.60
2022-02-15T07:54:00,mnr,19.48
2022-02-15T07:55:00,mnr,18.54
2022-02-15T07:56:00,mnr,18.99
2022-02-15T07:57:00,mnr,18.64
2022-02-15T07:58:00,mnr,18.83
2022-02-15T07:59:00,mnr,19.61
2022-02-15T08:00:00,mnr,19.05
2022-02-15T08:01:00,mnr,18.99
2022-02-15T08:02:00,mnr,19.02
2022-02-15T08:03:00,mnr,18.96
2022-02-15T08:04:00,mnr,20.01
2022-02-15T08:05:00,mnr,18.96
2022-02-15T08:06:00,mnr,18.98
2022-02-15T08:07:00,mnr,19.46
2022-02-15T08:08:00,mnr,19.01
2022-02-15T08:09:00,mnr,19.02
2022-02-15T08:10:00,mnr,19.11
2022-02-15T08:11:00,mnr,19.00
2022-02-15T08:12:00,mnr,19.03
2022-02-15T08:13:00,mnr,19.07
2022-02-15T08:14:00,mnr,19.16
2022-02-15T08:15:00,mnr,20.47
2022-02-15T08:16:00,mnr,19.16
2022-02-15T08:17:00,mnr,19.21
2022-02-15T08:18:00,mnr,19.16
2022-02-15T08:19:00,mnr,19.17
2022-02-15T08:20:00,mnr,19.51
2022-02-15T08:21:00,mnr,19.13
2022-02-15T08:22:00,mnr,21.19
2022-02-15T08:23:00,mnr,20.59
2022-02-15T08:24:00,mnr,20.15
2022-02-15T08:25:00,mnr,20.72
2022-02-15T08:26:00,mnr,20.26
2022-02-15T08:27:00,mnr,20.62
2022-02-15T08:28:00,mnr,21.76
2022-02-15T08:29:00,mnr,21.87
2022-02-15T08:30:00,mnr,21.98
2022-02-15T08:31:00,mnr,22.53
2022-02-15T08:32:00,mnr,22.58
2022-02-15T08:33:00,mnr,20.95
2022-02-15T08:34:00,mnr,20.92
2022-02-15T08:35:00,mnr,21.30
2022-02-15T08:36:00,mnr,21.42
2022-02-15T08:37:00,mnr,20.60
2022-02-15T08:38:00,mnr,21.07
2022-02-15T08:39:00,mnr,20.74
2022-02-15T08:40:00,mnr,20.57
2022-02-15T08:41:00,mnr,21.02
2022-02-15T08:42:00,mnr,16.93
2022-02-15T08:43:00,mnr,16.15
2022-02-15T08:44:00,mnr,17.88
2022-02-15T08:45:00,mnr,17.76
2022-02-15T08:46:00,mnr,17.76
2022-02-15T08:47:00,mnr,17.40
2022-02-15T08:48:00,mnr,17.23
2022-02-15T08:49:00,mnr,17.12
2022-02-15T08:50:00,mnr,17.40
2022-02-15T08:51:00,mnr,17.21
2022-02-15T08:52:00,mnr,17.03
2022-02-15T08:53:00,mnr,17.11
2022-02-15T08:54:00,mnr,17.00
2022-02-15T08:55:00,mnr,17.02
2022-02-15T08:56:00,mnr,17.61
2022-02-15T08:57:00,mnr,17.35
2022-02-15T08:58:00,mnr,17.11
2022-02-15T08:59:00,mnr,16.97
2022-02-15T09:00:00,mnr,17.66
2022-02-15T09:01:00,mnr,16.75
2022-02-15T09:02:00,mnr,18.62
2022-02-15T09:03:00,mnr,16.72
2022-02-15T09:04:00,mnr,17.07
2022-02-15T09:05:00,mnr,17.73
2022-02-15T09:06:00,mnr,17.52
2022-02-15T09:07:00,mnr,16.94
2022-02-15T09:08:00,mnr,17.58
2022-02-15T09:09:00,mnr,17.03
2022-02-15T09:10:00,mnr,18.35
2022-02-15T09:11:00,mnr,18.34
2022-02-15T09:12:00,mnr,16.82
2022-02-15T09:13:00,mnr,16.97
2022-02-15T09:14:00,mnr,17.07
2022-02-15T09:15:00,mnr,17.38
2022-02-15T09:16:00,mnr,16.85
2022-02-15T09:17:00,mnr,17.20
2022-02-15T09:18:00,mnr,19.80
2022-02-15T09:19:00,mnr,19.92
2022-02-15T09:20:00,mnr,20.55
2022-02-15T09:21:00,mnr,20.01
2022-02-15T09:22:00,mnr,21.23
2022-02-15T09:23:00,mnr,18.50
2022-02-15T09:24:00,mnr,19.22
2022-02-15T09:25:00,mnr,19.20
2022-02-15T09:26:00,mnr,18.49
2022-02-15T09:27:00,mnr,18.48
2022-02-15T09:28:00,mnr,15.52
2022-02-15T09:29:00,mnr,18.97
2022-02-15T09:30:00,mnr,18.96
2022-02-15T09:31:00,mnr,18.50
2022-02-15T09:32:00,mnr,18.53
2022-02-15T09:33:00,mnr,18.60
2022-02-15T09:34:00,mnr,18.37
2022-02-15T09:35:00,mnr,18.38
2022-02-15T09:36:00,mnr,18.85
2022-02-15T09:37:00,mnr,18.93
2022-02-15T09:38:00,mnr,18.89
2022-02-15T09:39:00,mnr,18.56
2022-02-15T09:40:00,mnr,18.90
2022-02-15T09:41:00,mnr,18.17
2022-02-15T09:42:00,mnr,18.27
2022-02-15T09:43:00,mnr,18.55
2022-02-15T09:44:00,mnr,18.07
2022-02-15T09:45:00,mnr,18.06
2022-02-15T09:46:00,mnr,18.00
2022-02-15T09:47:00,mnr,18.33
2022-02-15T09:48:00,mnr,18.35
2022-02-15T09:49:00,mnr,17.88
2022-02-15T09:50:00,mnr,18.36
2022-02-15T09:51:00,mnr,17.70
2022-02-15T09:52:00,mnr,17.71
2022-02-15T09:53:00,mnr,17.71
2022-02-15T09:54:00,mnr,18.20
2022-02-15T09:55:00,mnr,17.82
2022-02-15T09:56:00,mnr,18.25
2022-02-15T09:57:00,mnr,19.13
2022-02-15T09:58:00,mnr,16.98
2022-02-15T09:59:00,mnr,17.35
2022-02-15T10:00:00,mnr,17.83
2022-02-15T10:01:00,mnr,17.43
2022-02-15T10:02:00,mnr,17.04
2022-02-15T10:03:00,mnr,16.84
2022-02-15T10:04:00,mnr,17.23
2022-02-15T10:05:00,mnr,16.76
2022-02-15T10:06:00,mnr,17.63
2022-02-15T10:07:00,mnr,16.57
2022-02-15T10:08:00,mnr,17.23
2022-02-15T10:09:00,mnr,16.56
2022-02-15T10:10:00,mnr,17.24
2022-02-15T10:11:00,mnr,16.75
2022-02-15T10:12:00,mnr,18.15
2022-02-15T10:13:00,mnr,17.66
2022-02-15T10:14:00,mnr,17.57
2022-02-15T10:15:00,mnr,17.05
2022-02-15T10:16:00,mnr,16.45
2022-02-15T10:17:00,mnr,16.87
2022-02-15T10:18:00,mnr,16.85
2022-02-15T10:19:00,mnr,16.83
2022-02-15T10:20:00,mnr,17.26
2022-02-15T10:21:00,mnr,17.34
2022-02-15T10:22:00,mnr,17.58
2022-02-15T10:23:00,mnr,16.87
2022-02-15T10:24:00,mnr,17.18
2022-02-15T10:25:00,mnr,16.90
2022-02-15T10:26:00,mnr,17.39
2022-02-15T10:27:00,mnr,16.96
2022-02-15T10:28:00,mnr,17.42
2022-02-15T10:29:00,mnr,17.10
2022-02-15T10:30:00,mnr,18.14
2022-02-15T10:31:00,mnr,17.12
2022-02-15T10:32:00,mnr,17.62
2022-02-15T10:33:00,mnr,17.29
2022-02-15T10:34:00,mnr,17.22
2022-02-15T10:35:00,mnr,17.23
2022-02-15T10:36:00,mnr,18.23
2022-02-15T10:37:00,mnr,17.80
2022-02-15T10:38:00,mnr,17.20
2022-02-15T10:39:00,mnr,17.69
2022-02-15T10:40:00,mnr,17.24
2022-02-15T10:41:00,mnr,17.19
2022-02-15T10:42:00,mnr,17.62
2022-02-15T10:43:00,mnr,17.35
2022-02-15T10:44:00,mnr,15.76
2022-02-15T10:45:00,mnr,15.72
2022-02-15T10:46:00,mnr,15.87
2022-02-15T10:47:00,mnr,15.83
2022-02-15T10:48:00,mnr,15.87
2022-02-15T10:49:00,mnr,16.50
2022-02-15T10:50:00,mnr,16.60
2022-02-15T10:51:00,mnr,15.96
2022-02-15T10:52:00,mnr,16.29
2022-02-15T10:53:00,mnr,18.35
2022-02-15T10:54:00,mnr,18.24
2022-02-15T10:55:00,mnr,16.57
2022-02-15T10:56:00,mnr,17.37
2022-02-15T10:57:00,mnr,16.29
2022-02-15T10:58:00,mnr,16.71
2022-02-15T10:59:00,mnr,16.27
2022-02-15T11:00:00,mnr,16.32
2022-02-15T11:01:00,mnr,16.26
2022-02-15T11:02:00,mnr,17.48
2022-02-15T11:03:00,mnr,16.66
2022-02-15T11:04:00,mnr,16.47
2022-02-15T11:05:00,mnr,17.07
2022-02-15T11:06:00,mnr,16.99
2022-02-15T11:07:00,mnr,16.33
2022-02-15T11:08:00,mnr,16.97
2022-02-15T11:09:00,mnr,16.46
2022-02-15T11:10:00,mnr,16.35
2022-02-15T11:11:00,mnr,17.08
2022-02-15T11:12:00,mnr,17.81
2022-02-15T11:13:00,mnr,17.75
2022-02-15T11:14:00,mnr,17.71
2022-02-15T11:15:00,mnr,18.21
2022-02-15T11:16:00,mnr,17.96
2022-02-15T11:17:00,mnr,17.64
2022-02-15T11:18:00,mnr,18.45
2022-02-15T11:19:00,mnr,18.04
2022-02-15T11:20:00,mnr,17.26
2022-02-15T11:21:00,mnr,16.48
2022-02-15T11:22:00,mnr,16.85
2022-02-15T11:23:00,mnr,16.95
2022-02-15T11:24:00,mnr,16.03
2022-02-15T11:25:00,mnr,17.03
2022-02-15T11:26:00,mnr,16.72
2022-02-15T11:27:00,mnr,16.95
2022-02-15T11:28:00,mnr,17.04
2022-02-15T11:29:00,mnr,16.56
2022-02-15T11:30:00,mnr,16.09
2022-02-15T11:31:00,mnr,16.84
2022-02-15T11:32:00,mnr,15.69
2022-02-15T11:33:00,mnr,16.34
2022-02-15T11:34:00,mnr,15.80
2022-02-15T11:35:00,mnr,15.79
2022-02-15T11:36:00,mnr,15.67
2022-02-15T11:37:00,mnr,15.77
2022-02-15T11:38:00,mnr,16.25
2022-02-15T11:39:00,mnr,15.64
2022-02-15T11:40:00,mnr,16.49
2022-02-15T11:41:00,mnr,15.81
2022-02-15T11:42:00,mnr,17.74
2022-02-15T11:43:00,mnr,15.70
2022-02-15T11:44:00,mnr,15.67
2022-02-15T11:45:00,mnr,15.74
2022-02-15T11:46:00,mnr,15.58
2022-02-15T11:47:00,mnr,15.37
2022-02-15T11:48:00,mnr,16.25
2022-02-15T11:49:00,mnr,15.30
2022-02-15T11:50:00,mnr,14.92
2022-02-15T11:51:00,mnr,15.54
2022-02-15T11:52:00,mnr,14.87
2022-02-15T11:53:00,mnr,15.96
2022-02-15T11:54:00,mnr,15.71
2022-02-15T11:55:00,mnr,15.02
2022-02-15T11:56:00,mnr,14.84
2022-02-15T11:57:00,mnr,15.21
2022-02-15T11:58:00,mnr,14.72
2022-02-15T11:59:00,mnr,14.81
2022-02-15T12:00:00,mnr,17.98
2022-02-15T12:01:00,mnr,15.60
2022-02-15T12:02:00,mnr,18.01
2022-02-15T12:03:00,mnr,15.73
2022-02-15T12:04:00,mnr,15.60
2022-02-15T12:05:00,mnr,15.62
2022-02-15T12:06:00,mnr,15.54
2022-02-15T12:07:00,mnr,15.76
2022-02-15T12:08:00,mnr,15.02
2022-02-15T12:09:00,mnr,15.42
2022-02-15T12:10:00,mnr,15.30
2022-02-15T12:11:00,mnr,14.51
2022-02-15T12:12:00,mnr,14.65
2022-02-15T12:13:00,mnr,14.64
2022-02-15T12:14:00,mnr,16.38
2022-02-15T12:15:00,mnr,16.28
2022-02-15T12:16:00,mnr,14.81
2022-02-15T12:17:00,mnr,14.89
2022-02-15T12:18:00,mnr,14.78
2022-02-15T12:19:00,mnr,14.73
2022-02-15T12:20:00,mnr,14.77
2022-02-15T12:21:00,mnr,14.66
2022-02-15T12:22:00,mnr,15.15
2022-02-15T12:23:00,mnr,15.16
2022-02-15T12:24:00,mnr,15.45
2022-02-15T12:25:00,mnr,15.05
2022-02-15T12:26:00,mnr,15.12
2022-02-15T12:27:00,mnr,15.42
2022-02-15T12:28:00,mnr,16.27
2022-02-15T12:29:00,mnr,15.31
2022-02-15T12:30:00,mnr,14.89
2022-02-15T12:31:00,mnr,14.86
2022-02-15T12:32:00,mnr,15.50
2022-02-15T12:33:00,mnr,15.48
2022-02-15T12:34:00,mnr,14.85
2022-02-15T12:35:00,mnr,15.06
2022-02-15T12:36:00,mnr,14.80
2022-02-15T12:37:00,mnr,15.62
2022-02-15T12:38:00,mnr,15.14
2022-02-15T12:39:00,mnr,15.20
2022-02-15T12:40:00,mnr,15.23
2022-02-15T12:41:00,mnr,15.16
2022-02-15T12:42:00,mnr,15.84
2022-02-15T12:43:00,mnr,15.39
2022-02-15T12:44:00,mnr,15.33
2022-02-15T12:45:00,mnr,15.43
2022-02-15T12:46:00,mnr,15.46
2022-02-15T12:47:00,mnr,15.92
2022-02-15T12:48:00,mnr,16.05
2022-02-15T12:49:00,mnr,17.64
2022-02-15T12:50:00,mnr,17.56
2022-02-15T12:51:00,mnr,16.36
2022-02-15T12:52:00,mnr,15.40
2022-02-15T12:53:00,mnr,15.49
2022-02-15T12:54:00,mnr,15.79
2022-02-15T12:55:00,mnr,16.53
2022-02-15T12:56:00,mnr,15.52
2022-02-15T12:57:00,mnr,15.46
2022-02-15T12:58:00,mnr,15.68
2022-02-15T12:59:00,mnr,15.91
2022-02-15T13:00:00,mnr,15.50
2022-02-15T13:01:00,mnr,16.88
2022-02-15T13:02:00,mnr,16.84
2022-02-15T13:03:00,mnr,17.46
2022-02-15T13:04:00,mnr,16.81
2022-02-15T13:05:00,mnr,16.85
2022-02-15T13:06:00,mnr,15.36
2022-02-15T13:07:00,mnr,16.34
2022-02-15T13:08:00,mnr,15.44
2022-02-15T13:09:00,mnr,16.17
2022-02-15T13:10:00,mnr,15.85
2022-02-15T13:11:00,mnr,15.99
2022-02-15T13:12:00,mnr,16.03
2022-02-15T13:13:00,mnr,15.47
2022-02-15T13:14:00,mnr,15.51
2022-02-15T13:15:00,mnr,15.54
2022-02-15T13:16:00,mnr,16.98
2022-02-15T13:17:00,mnr,17.10
2022-02-15T13:18:00,mnr,17.04
2022-02-15T13:19:00,mnr,15.54
2022-02-15T13:20:00,mnr,17.17
2022-02-15T13:21:00,mnr,17.40
2022-02-15T13:22:00,mnr,17.07
2022-02-15T13:23:00,mnr,17.34
2022-02-15T13:24:00,mnr,15.74
2022-02-15T13:25:00,mnr,16.60
2022-02-15T13:26:00,mnr,16.90